FW8702 Weather Reports


time (UTC)temp
C
wind
direction
speed
KPH
gust
KPH
rain 1hr
cm
rain 24hr
cm
rain mn
cm
humidity
%
barometer
mb
20260903160101 30 197 0.0 3.2 0.00 0.00 0.00 45 1018.8
20260903154518 31 192 0.0 4.8 0.00 0.00 0.00 44 1019.0
20260903153041 30 132 0.0 6.4 0.00 0.00 0.00 46 1018.9
20260903151505 31 111 1.6 4.8 0.00 0.00 0.00 43 1019.0
20260903144542 31 132 1.6 6.4 0.00 0.00 0.00 40 1019.3
20260903143001 30 151 0.0 4.8 0.00 0.00 0.00 41 1019.3
20260903141556 31 183 1.6 6.4 0.00 0.00 0.00 41 1019.3
20260903140045 30 138 3.2 9.7 0.00 0.00 0.00 43 1019.6
20260903134550 30 252 0.0 4.8 0.00 0.00 0.00 43 1019.7
20260903133104 30 234 3.2 8.0 0.00 0.00 0.00 44 1019.8
20260903131531 30 122 0.0 3.2 0.00 0.00 0.00 43 1019.8
20260903130039 30 219 0.0 8.0 0.00 0.00 0.00 42 1019.9
20260903124534 30 227 3.2 11.3 0.00 0.00 0.00 42 1020.2
20260903123100 30 250 4.8 12.9 0.00 0.00 0.00 42 1020.4
20260903121511 30 237 1.6 9.7 0.00 0.00 0.00 42 1020.4
20260903120010 29 219 1.6 6.4 0.00 0.00 0.00 41 1020.5
20260903114504 30 306 1.6 6.4 0.00 0.00 0.00 40 1020.7
20260903113041 28 197 1.6 6.4 0.00 0.00 0.00 43 1021.0
20260903111508 28 234 3.2 11.3 0.00 0.00 0.00 42 1021.1
20260903110055 28 209 1.6 6.4 0.00 0.00 0.00 44 1021.0
20260903104611 27 256 1.6 9.7 0.00 0.00 0.00 45 1021.1
20260903103021 28 224 0.0 8.0 0.00 0.00 0.00 50 1021.4
20260903101604 27 213 1.6 4.8 0.00 0.00 0.00 48 1021.6
20260903100021 26 221 1.6 6.4 0.00 0.00 0.00 50 1021.8
20260903094535 26 268 1.6 11.3 0.00 0.00 0.00 50 1021.8
20260903093008 26 289 3.2 9.7 0.00 0.00 0.00 52 1021.6
20260903091508 25 213 1.6 8.0 0.00 0.00 0.00 52 1021.6
20260903090047 25 265 3.2 9.7 0.00 0.00 0.00 52 1021.6
20260903084601 25 298 4.8 9.7 0.00 0.00 0.00 54 1021.7
20260903083105 25 261 3.2 4.8 0.00 0.00 0.00 52 1021.6
20260903081520 25 343 0.0 4.8 0.00 0.00 0.00 56 1021.4
20260903080013 24 325 0.0 6.4 0.00 0.00 0.00 54 1021.5
20260903074508 23 280 0.0 4.8 0.00 0.00 0.00 58 1021.5
20260903073018 23 8 1.6 6.4 0.00 0.00 0.00 60 1021.4
20260903071520 22 285 0.0 4.8 0.00 0.00 0.00 64 1021.4
20260903070014 22 270 1.6 4.8 0.00 0.00 0.00 65 1021.4
20260903064505 21 328 0.0 8.0 0.00 0.00 0.00 70 1021.5
20260903063101 21 344 0.0 3.2 0.00 0.00 0.00 69 1021.6
20260903061535 21 338 1.6 6.4 0.00 0.00 0.00 70 1021.5
20260903060045 20 8 0.0 6.4 0.00 0.00 0.00 73 1021.6
20260903054509 19 321 0.0 4.8 0.00 0.00 0.00 76 1021.3
20260903053038 18 279 0.0 3.2 0.00 0.00 0.00 76 1021.0
20260903051547 18 279 0.0 3.2 0.00 0.00 0.00 74 1020.9
20260903050014 20 276 0.0 4.8 0.00 0.00 0.00 71 1020.8
20260903044604 19 327 3.2 4.8 0.00 0.00 0.00 73 1020.7
20260903043057 18 324 1.6 4.8 0.00 0.00 0.00 77 1020.5
20260903041544 18 266 0.0 4.8 0.00 0.00 0.00 78 1020.5
20260903040013 18 256 0.0 4.8 0.00 0.00 0.00 75 1020.3
20260903033032 19 298 0.0 4.8 0.00 0.00 0.00 76 1020.1
20260903031602 20 275 1.6 9.7 0.00 0.00 0.00 73 1020.1
20260903030004 19 314 0.0 6.4 0.00 0.00 0.00 77 1020.1
20260903024534 19 344 0.0 6.4 0.00 0.00 0.00 77 1020.1
20260903023005 20 273 3.2 6.4 0.00 0.00 0.00 74 1020.2
20260903021539 20 3 3.2 16.1 0.00 0.00 0.00 78 1020.3
20260903020018 18 283 3.2 9.7 0.00 0.00 0.00 81 1020.3
20260903014554 19 356 0.0 4.8 0.00 0.00 0.00 80 1020.3
20260903013037 20 13 0.0 3.2 0.00 0.00 0.00 78 1020.2
20260903011554 20 13 0.0 6.4 0.00 0.00 0.00 79 1020.2
20260903010034 20 320 0.0 3.2 0.00 0.00 0.00 81 1020.3
20260903004517 18 330 0.0 1.6 0.00 0.00 0.00 83 1020.1
20260903003045 19 281 3.2 9.7 0.00 0.00 0.00 82 1020.3
20260903001555 19 336 1.6 4.8 0.00 0.00 0.00 82 1020.3
20260903000015 20 13 0.0 4.8 0.00 0.00 0.00 82 1020.3
20260902234528 20 284 1.6 4.8 0.00 0.00 0.00 80 1020.1
20260902233014 21 306 0.0 3.2 0.00 0.00 0.00 79 1020.1
20260902231535 21 321 1.6 4.8 0.00 0.00 0.00 79 1020.0
20260902230009 21 349 1.6 6.4 0.00 0.00 0.00 80 1019.9
20260902224554 20 319 0.0 6.4 0.00 0.00 0.00 81 1020.0
20260902223005 21 314 0.0 4.8 0.00 0.00 0.00 79 1019.9
20260902221544 21 343 4.8 8.0 0.00 0.00 0.00 78 1019.9
20260902220022 21 308 1.6 8.0 0.00 0.00 0.00 79 1019.9
20260902214540 21 324 0.0 8.0 0.00 0.00 0.00 80 1019.9
20260902213041 21 281 0.0 6.4 0.00 0.00 0.00 81 1019.7
20260902211554 20 296 0.0 0.0 0.00 0.00 0.00 82 1019.5
20260902210044 20 288 0.0 3.2 0.00 0.00 0.00 82 1019.6
20260902204615 20 272 0.0 3.2 0.00 0.00 0.00 82 1019.5
20260902203049 20 289 0.0 3.2 0.00 0.00 0.00 82 1019.2
20260902201550 21 279 0.0 4.8 0.00 0.00 0.00 82 1019.2
20260902200037 21 275 0.0 0.0 0.00 0.00 0.00 81 1019.0
20260902194556 21 275 0.0 3.2 0.00 0.00 0.00 81 1019.0
20260902193001 21 275 0.0 3.2 0.00 0.00 0.00 80 1018.9
20260902191537 21 277 0.0 3.2 0.00 0.00 0.00 80 1018.7
20260902190029 21 276 0.0 3.2 0.00 0.00 0.00 80 1018.6
20260902184552 22 280 0.0 3.2 0.00 0.00 0.00 79 1018.3
20260902183004 23 323 0.0 3.2 0.00 0.00 0.00 78 1018.1
20260902181554 23 265 0.0 3.2 0.00 0.00 0.00 76 1018.0
20260902180105 25 111 0.0 0.0 0.00 0.00 0.00 73 1017.9
20260902174526 26 111 0.0 0.0 0.00 0.00 0.00 69 1017.8
20260902173054 27 111 0.0 3.2 0.00 0.00 0.00 66 1017.6
20260902171515 27 111 0.0 1.6 0.00 0.00 0.00 62 1017.7
20260902170025 28 119 0.0 3.2 0.00 0.00 0.00 58 1017.8
20260902164556 28 148 0.0 1.6 0.00 0.00 0.00 56 1017.7
20260902163102 28 118 0.0 4.8 0.00 0.00 0.00 54 1017.7
20260902161531 29 114 1.6 4.8 0.00 0.00 0.00 53 1017.7